Flag for Germany Weather past 2 weeks in Waldkraiburg, Bavaria, Germany

Now
66 °F

Partly sunny.


Feels Like: 66 °F
Forecast: 50 / 59 °F
Wind: 2 mph from West

Location: Muenchen Flughafen

Current Time: Sep 4, 2015 at 3:20:33 PM

Latest Report: Sep 4, 2015 at 3:00 PM


Visibility: 31 mi

Pressure: 29.98 "Hg

Humidity: 51%

Dew point: 47 °F

Location of WaldkraiburgLocation

Historic Weather in Waldkraiburg — Graph

°F

Waldkraiburg temperature yesterday

Maximum temperature yesterday: 65 °F (at 3:00 PM)
Minimum temperature yesterday: 54 °F (at 2:00 AM)
Average temperature yesterday: 59 °F

Past Weeks' High & Low Weather Summary

 TemperatureHumidityPressure
High91 °F (Aug 30, 4:00 PM)100% (Aug 21, 3:00 AM)30.28 "Hg (Aug 21, 3:00 AM)
Low45 °F (Aug 26, 7:00 AM)27% (Aug 26, 5:00 PM)29.63 "Hg (Aug 24, 7:00 PM)
Average66 °F73%30.01 "Hg
* Reported Aug 20 2:00 PM — Sep 4 2:00 PM, Waldkraiburg, Weather by CustomWeather, © 2015

Note: Actual official high and low records may vary slightly from our data, if they occured in-between our weather recording intervals... More about our weather records

Advertising

Waldkraiburg weather history for previous 24 hours

 ConditionsComfort  
Time TempWeatherWind HumidityBarometerVisibility
2:00 PM
Fri, Sep 4
64 °FPartly sunny.3 mph60%30.00 "Hg25 mi
1:00 PM63 °FPartly sunny.1 mph59%30.01 "Hg25 mi
12:00 PM61 °FPartly sunny.1 mph62%30.03 "Hg22 mi
11:00 AM59 °FOvercast.3 mph81%30.04 "Hg16 mi
10:00 AM58 °FOvercast.2 mph85%30.03 "Hg16 mi
9:00 AM55 °FOvercast.3 mph93%30.02 "Hg16 mi
8:00 AM55 °FOvercast.1 mph92%30.02 "Hg16 mi
7:00 AM53 °FScattered clouds.2 mph95%30.01 "Hg16 mi
6:00 AM54 °FOvercast.2 mph94%30.00 "Hg16 mi
5:00 AM54 °FOvercast.5 mph96%30.01 "Hg12 mi
4:00 AM55 °FOvercast.2 mph96%30.01 "Hg10 mi
3:00 AM56 °FLow clouds.3 mph94%30.00 "Hg8 mi
2:00 AM56 °FLight rain. Overcast.5 mph94%30.00 "Hg7 mi
1:00 AM57 °FOvercast.2 mph96%30.00 "Hg6 mi
11:00 PM
Thu, Sep 3
57 °FLight rain. Overcast.5 mph98%29.99 "Hg3 mi
10:00 PM58 °FOvercast.5 mph96%29.99 "Hg4 mi
9:00 PM58 °FLight rain. Low clouds.5 mph98%29.98 "Hg3 mi
8:00 PM59 °FLight rain. Low clouds.2 mph97%29.96 "Hg3 mi
7:00 PM59 °FLight rain. Low clouds.2 mph96%29.95 "Hg3 mi
6:00 PM59 °FRain. Low clouds.3 mph92%29.94 "Hg3 mi
5:00 PM60 °FRain. Low clouds.3 mph94%29.92 "Hg4 mi
4:00 PM62 °FRain showers. Overcast.2 mph87%29.93 "Hg5 mi
3:00 PM65 °FOvercast.1 mph78%29.91 "Hg12 mi
Weather by CustomWeather, © 2015

See weather overviewHow to use our weather pages